[[{"header":{"parameterUnit":"m.s-1","parameterCategory":1,"la1":30.2991,"la2":30.254,"lo1":-89.0895,"lo2":-89.0444,"dy":0.0017,"dx":0.0017,"nx":28,"ny":28,"refTime":"2024-04-25T09:00:00:Z","depth":0,"parameterNumber":2,"parameterNumberName":"U-component_of_WINDS"},"data":[0,0,0,0,0,0,0,0,0,0,0,0,0,0,0,0,0,0,0,0,0,0,0,0,0,0,0,0,0,0,0,0,0,0,0,0,0,0,0,0,0,0,0,0,0,0,0,0,0,0,0,0,0,0,0,0,0,0,-5.1981,-5.1982,0,-5.2112,-5.2113,-5.2115,-5.21,-5.2098,-5.2096,-5.2094,-5.2228,-5.2234,-5.2239,0,0,0,0,0,0,0,0,0,0,0,0,0,-5.1718,-5.1723,-5.1981,-5.1982,-5.1984,-5.2112,-5.2113,-5.2115,-5.2101,-5.2098,-5.2096,-5.2093,-5.2226,-5.2233,-5.224,0,0,0,0,0,0,0,0,0,0,0,0,0,-5.1839,-5.1725,-5.198,-5.1992,-5.1994,-5.2111,-5.2114,-5.2116,-5.2101,-5.2098,-5.2095,-5.2092,-5.2224,-5.2232,-5.224,-5.2354,0,0,-5.2266,-5.2269,0,0,0,0,0,0,0,0,-5.1832,-5.1849,-5.1989,-5.1992,-5.1994,-5.2087,-5.207,-5.2196,-5.2102,-5.2061,-5.2094,-5.2091,-5.2184,-5.2195,-5.2226,-5.236,-5.2366,-5.2266,-5.2271,-5.2275,-5.2277,0,0,0,0,0,0,0,-5.1824,-5.1843,-5.2033,-5.1991,-5.1994,-5.1991,-5.2005,-5.2094,-5.2138,-5.2064,-5.2063,-5.2079,-5.2185,-5.2219,-5.223,-5.2368,-5.2266,-5.2274,-5.2279,-5.2282,-5.2601,-5.2605,0,0,0,0,0,0,-5.1813,-5.1836,-5.2028,-5.2036,-5.1904,-5.1998,-5.2014,-5.206,-5.2137,-5.2146,-5.2082,-5.2078,-5.2206,-5.222,-5.2234,-5.2371,-5.2275,-5.2283,-5.2287,-5.2598,-5.2602,-5.2606,0,0,0,0,0,0,-5.1807,-5.183,-5.2023,-5.1936,-5.1961,-5.2006,-5.2059,-5.2064,-5.2098,-5.215,-5.2158,-5.2108,-5.2204,-5.2223,-5.2324,-5.2376,-5.2286,-5.2294,-5.2594,-5.2599,-5.2604,-5.2646,0,0,0,0,0,0,-5.18,-5.1828,-5.1871,-5.1937,-5.1965,-5.2111,-5.2062,-5.2069,-5.2113,-5.2109,-5.2177,-5.2186,-5.2203,-5.2312,-5.2332,-5.2385,-5.23,-5.2589,-5.2596,-5.2602,-5.2641,-5.2652,-5.2663,0,0,0,0,0,-5.179,-5.1878,-5.1873,-5.1897,-5.202,-5.2114,-5.213,-5.2148,-5.2117,-5.2161,-5.2194,-5.2183,-5.2367,-5.2323,-5.2345,-5.2402,-5.2586,-5.2594,-5.2602,-5.2636,-5.265,-5.2662,0,0,0,0,0,0,-5.1816,-5.1887,-5.1882,-5.1994,-5.2048,-5.2111,-5.2167,-5.2163,-5.2227,-5.2221,-5.2241,-5.2257,-5.2359,-5.2391,-5.234,-5.2516,-5.2472,-5.2485,-5.249,-5.2505,-5.2515,-5.2504,-5.2307,0,0,0,0,0,-5.1835,-5.1905,-5.1963,-5.2056,-5.2083,-5.2121,-5.2162,-5.2172,-5.2228,-5.2251,-5.2292,-5.2347,-5.2418,-5.2463,-5.2531,-5.2646,-5.266,-5.2696,-5.2707,-5.2716,-5.2726,-5.2789,-5.2806,-5.2632,-5.2632,-5.2632,0,0,-5.1874,-5.1921,-5.1964,-5.2062,-5.2105,-5.2177,-5.214,-5.2217,-5.2271,-5.2263,-5.2361,-5.2393,-5.2457,-5.2565,-5.2615,-5.2595,-5.2778,-5.2726,-5.2733,-5.2738,-5.2799,-5.2815,-5.283,-5.2637,-5.2636,-5.2636,0,0,-5.1982,-5.2025,-5.2107,-5.2151,-5.2217,-5.2241,-5.2261,-5.2326,-5.2347,-5.2446,-5.2441,-5.2506,-5.2627,-5.2672,-5.271,-5.2837,-5.2829,-5.2859,-5.2916,-5.2977,-5.2991,-5.3003,-5.3047,-5.3062,-5.287,-5.287,-5.287,0,-5.2022,-5.213,-5.2149,-5.2228,-5.2271,-5.2268,-5.2351,-5.2393,-5.2478,-5.2507,-5.2484,-5.2636,-5.2679,-5.2797,-5.2829,-5.2861,-5.2883,-5.285,-5.2987,-5.2999,-5.3011,-5.3053,-5.307,-5.2873,-5.2872,-5.2872,-5.2872,0,-5.2175,-5.2251,-5.2309,-5.239,-5.2441,-5.2521,-5.2553,-5.2602,-5.2608,-5.2635,-5.2736,-5.2788,-5.2865,-5.2895,-5.2902,-5.3016,-5.3001,-5.2983,-5.2939,-5.303,-5.307,-5.3086,-5.2877,-5.2876,-5.2875,-5.2874,0,0,-5.23,-5.2393,-5.2414,-5.2451,-5.2524,-5.2582,-5.2663,-5.274,-5.278,-5.284,-5.2907,-5.3011,-5.2994,-5.3038,-5.3051,-5.3105,-5.3201,-5.308,-5.3082,-5.3099,-5.3328,-5.334,-5.3358,-5.3197,-5.3201,-5.3203,-5.3322,0,-5.2413,-5.2555,-5.2576,-5.2702,-5.2771,-5.2771,-5.2841,-5.2894,-5.2922,-5.2985,-5.3017,-5.3089,-5.3063,-5.3089,-5.3143,-5.3178,-5.3247,-5.317,-5.3259,-5.3262,-5.3241,-5.3379,-5.3392,-5.3501,-5.3338,-5.3341,-5.3343,0,-5.2564,-5.2627,-5.2759,-5.2823,-5.2853,-5.2916,-5.2988,-5.3049,-5.3109,-5.3126,-5.3176,-5.3182,-5.3266,-5.3222,-5.3337,-5.3284,-5.3323,-5.3346,-5.3351,-5.3358,-5.3306,-5.3388,-5.3537,-5.3552,-5.3368,-5.3366,-5.3364,0,-5.2639,-5.2758,-5.2852,-5.2884,-5.2962,-5.3006,-5.304,-5.3097,-5.3142,-5.3206,-5.3235,-5.3308,-5.3347,-5.3403,-5.3429,-5.3394,-5.3543,-5.35,-5.3558,-5.3557,-5.3587,-5.3584,-5.3742,-5.3616,-5.3616,-5.3615,-5.3615,0,-5.2762,-5.2843,-5.2887,-5.2944,-5.3035,-5.3059,-5.3148,-5.3181,-5.3233,-5.3297,-5.3302,-5.3362,-5.3394,-5.3459,-5.348,-5.3572,-5.3591,-5.3606,-5.361,-5.3604,-5.3602,-5.3628,-5.362,-5.362,-5.3619,-5.3618,-5.3617,0,-5.286,-5.2894,-5.2996,-5.3062,-5.308,-5.3144,-5.32,-5.3256,-5.3285,-5.3366,-5.3387,-5.3432,-5.3509,-5.3541,-5.3636,-5.365,-5.3756,-5.3755,-5.3735,-5.3736,-5.3791,-5.3784,-5.3969,-5.3994,-5.3853,-5.3854,-5.3856,0,-5.2935,-5.2997,-5.307,-5.3113,-5.3149,-5.3219,-5.3265,-5.3292,-5.3339,-5.3413,-5.346,-5.3538,-5.3601,-5.3724,-5.3766,-5.3838,-5.3838,-5.3898,-5.3849,-5.3841,-5.3837,-5.3832,-5.3838,-5.3906,-5.3907,-5.3909,-5.391,0,-5.3065,-5.3078,-5.3144,-5.3216,-5.327,-5.3328,-5.3385,-5.342,-5.3456,-5.3509,-5.3588,-5.3637,-5.3735,-5.3811,-5.3886,-5.3922,-5.3922,-5.3925,-5.3942,-5.3935,-5.392,-5.3927,-5.3757,-5.392,-5.3919,-5.3918,-5.3918,-5.3917,-5.3152,-5.3207,-5.3266,-5.334,-5.3385,-5.3438,-5.3494,-5.353,-5.3596,-5.3677,-5.369,-5.3774,-5.3834,-5.3935,-5.3974,-5.4041,-5.4025,-5.405,-5.4056,-5.4061,-5.4064,-5.3912,-5.4055,-5.4055,-5.4054,-5.4054,-5.4054,0,-5.328,-5.3319,-5.3386,-5.3465,-5.3522,-5.3518,-5.3581,-5.3629,-5.3703,-5.3759,-5.3821,-5.3912,-5.3987,-5.4035,-5.411,-5.4154,-5.4156,-5.4173,-5.4169,-5.4177,-5.4074,-5.4051,-5.417,-5.417,-5.417,-5.417,-5.417,-5.417,-5.3353,-5.3445,-5.3466,-5.3581,-5.3619,-5.3702,-5.3738,-5.3787,-5.3831,-5.3932,-5.3994,-5.4025,-5.4078,-5.4158,-5.4226,-5.4239,-5.4265,-5.4283,-5.4294,-5.4196,-5.4184,-5.4173,-5.4151,-5.4289,-5.4289,-5.4391,-5.4392,-5.4393]},{"header":{"parameterUnit":"m.s-1","parameterCategory":1,"la1":30.2991,"la2":30.254,"lo1":-89.0895,"lo2":-89.0444,"dy":0.0017,"dx":0.0017,"nx":28,"ny":28,"refTime":"2024-04-25T09:00:00:Z","depth":0,"parameterNumber":3,"parameterNumberName":"V-component_of_WINDS"},"data":[0,0,0,0,0,0,0,0,0,0,0,0,0,0,0,0,0,0,0,0,0,0,0,0,0,0,0,0,0,0,0,0,0,0,0,0,0,0,0,0,0,0,0,0,0,0,0,0,0,0,0,0,0,0,0,0,0,0,4.8536,4.8536,0,4.856,4.856,4.856,4.8518,4.8517,4.8515,4.8514,4.8535,4.8536,4.8538,0,0,0,0,0,0,0,0,0,0,0,0,0,4.8451,4.8453,4.8536,4.8537,4.8537,4.856,4.856,4.8561,4.8518,4.8517,4.8515,4.8513,4.8534,4.8536,4.8538,0,0,0,0,0,0,0,0,0,0,0,0,0,4.8483,4.8454,4.8536,4.8519,4.8517,4.856,4.856,4.8561,4.8519,4.8516,4.8514,4.8512,4.8533,4.8536,4.8539,4.8598,0,0,4.8547,4.8549,0,0,0,0,0,0,0,0,4.8481,4.8486,4.8521,4.852,4.8518,4.8534,4.8538,4.8573,4.8519,4.8518,4.8514,4.8511,4.8536,4.8538,4.8547,4.8599,4.86,4.8548,4.8549,4.855,4.8551,0,0,0,0,0,0,0,4.8479,4.8485,4.8545,4.8521,4.852,4.8509,4.8511,4.8544,4.8538,4.8518,4.8515,4.8518,4.8535,4.8545,4.8547,4.8601,4.8547,4.855,4.8552,4.8553,4.8703,4.8705,0,0,0,0,0,0,4.848,4.8483,4.8545,4.8546,4.8494,4.8512,4.8514,4.8531,4.8538,4.8537,4.852,4.8516,4.8541,4.8544,4.8548,4.8618,4.855,4.8553,4.8555,4.8701,4.8704,4.8706,0,0,0,0,0,0,4.8478,4.8485,4.8544,4.8514,4.8521,4.8516,4.8535,4.8533,4.8542,4.854,4.8538,4.8532,4.8539,4.8544,4.8587,4.8618,4.8554,4.8557,4.8698,4.8702,4.8705,4.8759,0,0,0,0,0,0,4.8476,4.8485,4.8508,4.8515,4.8522,4.8583,4.8537,4.8535,4.8548,4.8543,4.855,4.8549,4.8538,4.8583,4.8589,4.8621,4.8559,4.8695,4.87,4.8704,4.8755,4.8764,4.8773,0,0,0,0,0,4.8473,4.8522,4.851,4.8517,4.8551,4.8585,4.8589,4.8576,4.8551,4.8573,4.8572,4.8549,4.8614,4.8587,4.8595,4.8628,4.8693,4.8699,4.8704,4.8751,4.8763,4.8772,0,0,0,0,0,0,4.8517,4.8522,4.8509,4.8562,4.8573,4.8578,4.8606,4.8589,4.8607,4.8601,4.8584,4.8586,4.8632,4.8634,4.8604,4.8686,4.8649,4.8656,4.8683,4.8694,4.8703,4.87,4.8561,0,0,0,0,0,4.8534,4.8561,4.8564,4.861,4.8617,4.8611,4.8625,4.8614,4.8625,4.8629,4.863,4.8641,4.8664,4.8679,4.87,4.8756,4.8756,4.8782,4.8791,4.8798,4.8804,4.8833,4.8845,4.8723,4.8723,4.8723,0,0,4.8566,4.8573,4.8591,4.8619,4.8627,4.8655,4.8615,4.8646,4.8667,4.8633,4.8674,4.8676,4.8686,4.8736,4.8757,4.8739,4.8838,4.8805,4.8811,4.8812,4.884,4.8851,4.8862,4.8727,4.8726,4.8726,0,0,4.8641,4.8649,4.8689,4.8698,4.8711,4.8707,4.8717,4.8724,4.8724,4.8765,4.8741,4.8765,4.8804,4.8813,4.8823,4.8903,4.8882,4.891,4.8956,4.8985,4.8994,4.9003,4.9031,4.9041,4.8916,4.8916,4.8916,0,4.868,4.8723,4.8711,4.8745,4.8757,4.8731,4.877,4.8779,4.8798,4.8807,4.8787,4.8837,4.8842,4.8893,4.8913,4.8922,4.8931,4.8908,4.8994,4.9003,4.901,4.9037,4.9047,4.892,4.8919,4.8919,4.8918,0,4.877,4.88,4.8831,4.8851,4.8868,4.8904,4.8897,4.8915,4.8903,4.8901,4.8943,4.8949,4.8971,4.8982,4.8971,4.9032,4.902,4.8997,4.896,4.9025,4.905,4.906,4.8924,4.8923,4.8922,4.8921,0,0,4.8871,4.8887,4.8898,4.8907,4.892,4.8943,4.8978,4.9001,4.9017,4.9031,4.9059,4.9095,4.9074,4.9085,4.9075,4.91,4.9163,4.9074,4.9074,4.909,4.923,4.9246,4.9258,4.915,4.9152,4.9154,4.9229,0,4.8945,4.9008,4.8999,4.9058,4.9085,4.9061,4.9092,4.9103,4.9103,4.9125,4.9124,4.9149,4.912,4.9127,4.9151,4.915,4.9191,4.9145,4.9175,4.9177,4.9172,4.9271,4.9288,4.9359,4.9239,4.924,4.9241,0,4.9039,4.9059,4.9122,4.9132,4.9143,4.9171,4.9191,4.9214,4.9226,4.9223,4.9237,4.9222,4.9256,4.922,4.9267,4.9236,4.9248,4.925,4.9252,4.9253,4.9212,4.9274,4.9382,4.9392,4.9257,4.9255,4.9254,0,4.9107,4.9149,4.9192,4.92,4.9213,4.9233,4.9239,4.925,4.9264,4.9282,4.9291,4.9312,4.9324,4.934,4.9331,4.9305,4.9379,4.9342,4.9377,4.9378,4.9393,4.9392,4.9503,4.9403,4.9403,4.9402,4.9402,0,4.9189,4.9229,4.9222,4.9248,4.9292,4.9281,4.9323,4.9326,4.9336,4.9362,4.9342,4.9366,4.9354,4.9377,4.937,4.941,4.9415,4.9414,4.9411,4.9415,4.9415,4.9422,4.9416,4.9405,4.9405,4.9404,4.9404,0,4.9271,4.9268,4.9314,4.9323,4.9326,4.9358,4.9365,4.9389,4.9388,4.9421,4.9428,4.9425,4.9452,4.9445,4.9474,4.9469,4.9519,4.9511,4.9515,4.9513,4.9548,4.9545,4.9666,4.9682,4.9573,4.9574,4.9575,0,4.9323,4.9353,4.9366,4.9383,4.9391,4.9418,4.9434,4.9424,4.9441,4.9458,4.948,4.9505,4.9525,4.9568,4.9568,4.959,4.9581,4.9623,4.9584,4.9587,4.9581,4.9579,4.9582,4.963,4.9631,4.9632,4.9633,0,4.9417,4.9415,4.9438,4.9462,4.9481,4.9499,4.9515,4.9529,4.9521,4.9541,4.9569,4.9584,4.9614,4.9639,4.9659,4.9664,4.9647,4.9645,4.9654,4.9658,4.9659,4.9658,4.9535,4.9642,4.9641,4.964,4.964,4.9639,4.9485,4.951,4.9524,4.9551,4.9563,4.9578,4.9602,4.9604,4.9628,4.9653,4.9646,4.9677,4.9689,4.9714,4.9722,4.9746,4.973,4.9744,4.9747,4.975,4.9754,4.9657,4.975,4.9749,4.9749,4.9749,4.9749,0,4.9577,4.9585,4.961,4.9634,4.9655,4.9639,4.9656,4.9675,4.9703,4.9716,4.9737,4.9769,4.9793,4.9796,4.9819,4.9837,4.983,4.9844,4.9841,4.9843,4.9768,4.9757,4.9849,4.9849,4.9849,4.9849,4.9849,4.9849,4.9627,4.967,4.9669,4.9717,4.9725,4.9757,4.9768,4.9782,4.9792,4.9829,4.985,4.9853,4.9861,4.9885,4.9906,4.9906,4.9915,4.9932,4.9929,4.9858,4.9848,4.9838,4.9828,4.9934,4.9934,5.0002,5.0003,5.0003]}]]